FDA327 RJNA-RJFT

Flight info

Callsign FDA327
Flight time 1h 6m
Altitude 30000
Route TALMI HEIAN WAKIT PIONE Y28 ONDOC Y452 OOITA Y40 KAZMA
Aircraft E75S/M-SDE3GILORVW/S

Departure

Time 2026-05-06 10:32
Airport Nagoya Airport / JASDF Komaki Air Base (RJNA)

Arrival

Time 2026-05-06 11:38
Airport Kumamoto Airport (RJFT)
Time Latitude Longitude Altitude Speed Heading
2026-05-06 10:15 35.25449 136.92104 43 ft 0 kts 153°
2026-05-06 10:24 35.25452 136.92102 43 ft 2 kts 153°
2026-05-06 10:25 35.25464 136.92094 43 ft 0 kts 153°
2026-05-06 10:25 35.25472 136.92087 43 ft 2 kts 122°
2026-05-06 10:25 35.25475 136.92070 43 ft 1 kts 75°
2026-05-06 10:25 35.25472 136.92062 43 ft 1 kts 56°
2026-05-06 10:26 35.25470 136.92058 43 ft 0 kts 62°
2026-05-06 10:27 35.25471 136.92059 43 ft 1 kts 62°
2026-05-06 10:27 35.25484 136.92091 43 ft 7 kts 63°
2026-05-06 10:27 35.25517 136.92169 43 ft 11 kts 62°
2026-05-06 10:28 35.25492 136.92247 43 ft 11 kts 152°
2026-05-06 10:28 35.25416 136.92294 43 ft 14 kts 152°
2026-05-06 10:28 35.25316 136.92358 43 ft 17 kts 153°
2026-05-06 10:28 35.25201 136.92432 43 ft 20 kts 152°
2026-05-06 10:29 35.25071 136.92514 43 ft 20 kts 153°
2026-05-06 10:29 35.24944 136.92595 43 ft 19 kts 152°
2026-05-06 10:29 35.24824 136.92671 43 ft 18 kts 152°
2026-05-06 10:29 35.24707 136.92746 43 ft 18 kts 153°
2026-05-06 10:30 35.24591 136.92819 43 ft 18 kts 153°
2026-05-06 10:30 35.24479 136.92900 43 ft 18 kts 138°
2026-05-06 10:30 35.24436 136.93025 43 ft 15 kts 88°
2026-05-06 10:30 35.24486 136.93109 45 ft 11 kts
2026-05-06 10:31 35.24542 136.93079 44 ft 7 kts 330°
2026-05-06 10:31 35.24607 136.93037 44 ft 25 kts 333°
2026-05-06 10:31 35.25019 136.92776 46 ft 104 kts 333°
2026-05-06 10:31 35.25863 136.92236 56 ft 163 kts 333°
2026-05-06 10:32 35.26913 136.91566 554 ft 178 kts 333°
2026-05-06 10:32 35.27972 136.90878 1457 ft 174 kts 332°
2026-05-06 10:32 35.29065 136.90158 2013 ft 190 kts 333°
2026-05-06 10:32 35.30103 136.88997 2463 ft 214 kts 309°
2026-05-06 10:33 35.31050 136.87521 3047 ft 230 kts 309°
2026-05-06 10:33 35.32077 136.85921 3551 ft 252 kts 308°
2026-05-06 10:33 35.33199 136.84170 4066 ft 271 kts 308°
2026-05-06 10:33 35.34378 136.82329 4867 ft 278 kts 307°
2026-05-06 10:34 35.35557 136.80487 5759 ft 279 kts 307°
2026-05-06 10:34 35.36747 136.78627 6657 ft 279 kts 306°
2026-05-06 10:34 35.37940 136.76759 7509 ft 280 kts 306°
2026-05-06 10:34 35.39106 136.74875 8307 ft 280 kts 297°
2026-05-06 10:35 35.39585 136.72617 8981 ft 277 kts 264°
2026-05-06 10:35 35.38952 136.70424 9645 ft 278 kts 231°
2026-05-06 10:35 35.37696 136.68657 10360 ft 279 kts 239°
2026-05-06 10:35 35.37130 136.66382 10977 ft 285 kts 261°
2026-05-06 10:36 35.36765 136.63974 11508 ft 293 kts 256°
2026-05-06 10:36 35.36213 136.61530 11988 ft 303 kts 252°
2026-05-06 10:36 35.35567 136.59045 12500 ft 310 kts 252°
2026-05-06 10:36 35.34917 136.56503 13073 ft 315 kts 252°
2026-05-06 10:37 35.34288 136.54031 13664 ft 318 kts 252°
2026-05-06 10:37 35.33637 136.51472 14291 ft 319 kts 253°
2026-05-06 10:37 35.32978 136.48879 14897 ft 321 kts 253°
2026-05-06 10:37 35.32314 136.46263 15544 ft 322 kts 253°
2026-05-06 10:38 35.31650 136.43655 16149 ft 323 kts 253°
2026-05-06 10:38 35.30985 136.41042 16734 ft 324 kts 254°
2026-05-06 10:38 35.30313 136.38405 17270 ft 326 kts 254°
2026-05-06 10:38 35.29630 136.35728 17777 ft 329 kts 254°
2026-05-06 10:39 35.28953 136.33077 18361 ft 330 kts 254°
2026-05-06 10:39 35.28273 136.30417 18938 ft 330 kts 253°
2026-05-06 10:39 35.27586 136.27730 19520 ft 329 kts 253°
2026-05-06 10:39 35.26910 136.25090 20099 ft 328 kts 253°
2026-05-06 10:40 35.26231 136.22446 20672 ft 327 kts 253°
2026-05-06 10:40 35.25548 136.19783 21190 ft 328 kts 253°
2026-05-06 10:40 35.24872 136.17149 21652 ft 329 kts 253°
2026-05-06 10:40 35.24180 136.14459 22157 ft 329 kts 253°
2026-05-06 10:41 35.23498 136.11812 22669 ft 328 kts 253°
2026-05-06 10:41 35.22815 136.09161 23084 ft 330 kts 252°
2026-05-06 10:41 35.22128 136.06499 23488 ft 332 kts 253°
2026-05-06 10:41 35.21431 136.03798 23931 ft 332 kts 252°
2026-05-06 10:42 35.20743 136.01135 24354 ft 333 kts 252°
2026-05-06 10:42 35.20042 135.98427 24750 ft 335 kts 252°
2026-05-06 10:42 35.19340 135.95721 25107 ft 337 kts 252°
2026-05-06 10:42 35.18632 135.92986 25519 ft 337 kts 251°
2026-05-06 10:43 35.17926 135.90268 25970 ft 336 kts 251°
2026-05-06 10:43 35.17223 135.87560 26346 ft 337 kts 251°
2026-05-06 10:43 35.16515 135.84837 26751 ft 336 kts 251°
2026-05-06 10:44 35.15108 135.79439 27440 ft 338 kts 251°
2026-05-06 10:44 35.14399 135.76720 27760 ft 339 kts 250°
2026-05-06 10:44 35.13679 135.73965 28080 ft 340 kts 250°
2026-05-06 10:44 35.12967 135.71240 28405 ft 340 kts 250°
2026-05-06 10:45 35.12245 135.68481 28780 ft 339 kts 249°
2026-05-06 10:45 35.11530 135.65756 29110 ft 339 kts 250°
2026-05-06 10:45 35.10805 135.62991 29340 ft 342 kts 250°
2026-05-06 10:45 35.10089 135.60263 29616 ft 343 kts 250°
2026-05-06 10:46 35.09360 135.57489 29904 ft 344 kts 250°
2026-05-06 10:46 35.08637 135.54739 30068 ft 338 kts 249°
2026-05-06 10:46 35.07912 135.51990 30093 ft 345 kts 250°
2026-05-06 10:47 35.06112 135.46420 30091 ft 359 kts 248°
2026-05-06 10:47 35.04450 135.40578 30089 ft 371 kts 250°
2026-05-06 10:48 35.02804 135.34495 30092 ft 378 kts 250°
2026-05-06 10:48 35.01180 135.28473 30109 ft 375 kts 250°
2026-05-06 10:49 34.99544 135.22412 30103 ft 377 kts 250°
2026-05-06 10:49 34.97906 135.16354 30100 ft 376 kts 249°
2026-05-06 10:50 34.96263 135.10297 30095 ft 376 kts 249°
2026-05-06 10:50 34.94616 135.04236 30092 ft 380 kts 249°
2026-05-06 10:51 34.92962 134.98166 30086 ft 379 kts 250°
2026-05-06 10:51 34.91298 134.92067 30089 ft 380 kts 249°
2026-05-06 10:52 34.89628 134.85963 30092 ft 381 kts 250°
2026-05-06 10:52 34.87941 134.79813 30098 ft 385 kts 249°
2026-05-06 10:53 34.86240 134.73621 30096 ft 386 kts 250°
2026-05-06 10:53 34.84532 134.67418 30097 ft 388 kts 250°
2026-05-06 10:54 34.82816 134.61202 30098 ft 389 kts 250°
2026-05-06 10:54 34.81085 134.54945 30093 ft 390 kts 250°
2026-05-06 10:55 34.79343 134.48666 30099 ft 394 kts 250°
2026-05-06 10:55 34.77594 134.42374 30098 ft 394 kts 250°
2026-05-06 10:56 34.75829 134.36035 30096 ft 397 kts 250°
2026-05-06 10:56 34.74055 134.29683 30106 ft 396 kts 250°
2026-05-06 10:57 34.72277 134.23328 30109 ft 396 kts 250°
2026-05-06 10:57 34.70494 134.16969 30100 ft 398 kts 250°
2026-05-06 10:58 34.68704 134.10605 30108 ft 398 kts 250°
2026-05-06 10:58 34.66893 134.04179 30106 ft 401 kts 250°
2026-05-06 10:59 34.65089 133.97792 30106 ft 403 kts 250°
2026-05-06 10:59 34.63268 133.91359 30105 ft 402 kts 251°
2026-05-06 11:00 34.61444 133.84929 30108 ft 403 kts 250°
2026-05-06 11:00 34.59621 133.78520 30094 ft 403 kts 251°
2026-05-06 11:01 34.57794 133.72107 30098 ft 404 kts 251°
2026-05-06 11:01 34.55951 133.65657 30089 ft 405 kts 251°
2026-05-06 11:02 34.54033 133.59241 30084 ft 407 kts 249°
2026-05-06 11:02 34.51929 133.52872 30086 ft 408 kts 249°
2026-05-06 11:03 34.49826 133.46481 30082 ft 407 kts 249°
2026-05-06 11:03 34.47730 133.40123 30089 ft 409 kts 249°
2026-05-06 11:04 34.45683 133.33673 30071 ft 408 kts 250°
2026-05-06 11:04 34.43671 133.27237 30096 ft 410 kts 250°
2026-05-06 11:05 34.41628 133.20717 30072 ft 412 kts 250°
2026-05-06 11:05 34.39595 133.14284 30088 ft 409 kts 250°
2026-05-06 11:06 34.37539 133.07826 30079 ft 417 kts 250°
2026-05-06 11:06 34.35461 133.01312 30078 ft 413 kts 250°
2026-05-06 11:07 34.33379 132.94800 30083 ft 415 kts 250°
2026-05-06 11:07 34.31301 132.88313 30087 ft 419 kts 251°
2026-05-06 11:08 34.29238 132.81769 30081 ft 418 kts 251°
2026-05-06 11:08 34.27177 132.75236 30078 ft 415 kts 251°
2026-05-06 11:09 34.25094 132.68655 30077 ft 425 kts 251°
2026-05-06 11:09 34.23002 132.62056 30065 ft 420 kts 251°
2026-05-06 11:10 34.20547 132.55615 30082 ft 426 kts 239°
2026-05-06 11:10 34.18704 132.52750 30078 ft 437 kts 231°
2026-05-06 11:10 34.16565 132.50201 30083 ft 432 kts 229°
2026-05-06 11:11 34.12281 132.45055 30075 ft 439 kts 229°
2026-05-06 11:11 34.08011 132.39891 30081 ft 439 kts 229°
2026-05-06 11:12 34.03685 132.34665 30091 ft 444 kts 228°
2026-05-06 11:12 33.99322 132.29401 30088 ft 443 kts 228°
2026-05-06 11:13 33.94993 132.24185 30093 ft 439 kts 228°
2026-05-06 11:13 33.90312 132.19368 30097 ft 451 kts 216°
2026-05-06 11:14 33.84620 132.15941 30084 ft 456 kts 210°
2026-05-06 11:14 33.78954 132.12633 30074 ft 451 kts 210°
2026-05-06 11:15 33.73332 132.09343 30074 ft 447 kts 210°
2026-05-06 11:15 33.70570 132.07727 30067 ft 435 kts 210°
2026-05-06 11:15 33.67839 132.06130 30062 ft 432 kts 210°
2026-05-06 11:16 33.62462 132.02989 29853 ft 435 kts 211°
2026-05-06 11:16 33.59718 132.01388 29310 ft 434 kts 210°
2026-05-06 11:16 33.57037 131.99824 28847 ft 435 kts 210°
2026-05-06 11:16 33.54316 131.98239 28357 ft 431 kts 210°
2026-05-06 11:17 33.51643 131.96684 27886 ft 424 kts 210°
2026-05-06 11:17 33.49000 131.95146 27413 ft 421 kts 210°
2026-05-06 11:17 33.46503 131.93410 26951 ft 412 kts 219°
2026-05-06 11:17 33.44250 131.91309 26503 ft 407 kts 222°
2026-05-06 11:18 33.42042 131.89212 26052 ft 409 kts 222°
2026-05-06 11:18 33.39823 131.87109 25596 ft 406 kts 221°
2026-05-06 11:18 33.37608 131.85016 25148 ft 402 kts 221°
2026-05-06 11:18 33.35433 131.82960 24705 ft 402 kts 221°
2026-05-06 11:19 33.33250 131.80899 24265 ft 398 kts 221°
2026-05-06 11:19 33.31074 131.78847 23834 ft 397 kts 221°
2026-05-06 11:19 33.28912 131.76808 23395 ft 396 kts 221°
2026-05-06 11:19 33.26739 131.74760 22964 ft 395 kts 221°
2026-05-06 11:20 33.24575 131.72722 22523 ft 394 kts 221°
2026-05-06 11:20 33.22486 131.70624 22070 ft 390 kts 231°
2026-05-06 11:20 33.21025 131.67970 21679 ft 383 kts 244°
2026-05-06 11:20 33.19769 131.65186 21234 ft 383 kts 245°
2026-05-06 11:21 33.18522 131.62387 20806 ft 381 kts 244°
2026-05-06 11:21 33.17291 131.59613 20388 ft 379 kts 245°
2026-05-06 11:21 33.16060 131.56841 19975 ft 377 kts 245°
2026-05-06 11:21 33.14827 131.54062 19545 ft 376 kts 245°
2026-05-06 11:22 33.13612 131.51325 19137 ft 375 kts 245°
2026-05-06 11:22 33.12391 131.48587 18728 ft 374 kts 244°
2026-05-06 11:22 33.11168 131.45869 18318 ft 372 kts 244°
2026-05-06 11:22 33.09943 131.43150 17899 ft 370 kts 244°
2026-05-06 11:23 33.08735 131.40471 17511 ft 368 kts 244°
2026-05-06 11:23 33.07526 131.37793 17108 ft 365 kts 244°
2026-05-06 11:23 33.06344 131.35173 16703 ft 360 kts 244°
2026-05-06 11:23 33.05149 131.32529 16305 ft 357 kts 243°
2026-05-06 11:24 33.03984 131.29953 15917 ft 355 kts 244°
2026-05-06 11:24 33.02813 131.27364 15525 ft 352 kts 244°
2026-05-06 11:24 33.01660 131.24817 15138 ft 349 kts 244°
2026-05-06 11:24 33.00525 131.22267 14753 ft 346 kts 244°
2026-05-06 11:25 32.99416 131.19775 14377 ft 342 kts 244°
2026-05-06 11:25 32.98294 131.17256 13993 ft 339 kts 244°
2026-05-06 11:25 32.97409 131.14719 13657 ft 335 kts 255°
2026-05-06 11:25 32.96740 131.12056 13305 ft 333 kts 255°
2026-05-06 11:26 32.96078 131.09413 12945 ft 332 kts 255°
2026-05-06 11:26 32.95416 131.06770 12579 ft 330 kts 255°
2026-05-06 11:26 32.94767 131.04182 12216 ft 331 kts 255°
2026-05-06 11:26 32.94108 131.01561 11846 ft 330 kts 254°
2026-05-06 11:27 32.93454 130.98962 11482 ft 323 kts 255°
2026-05-06 11:27 32.92820 130.96440 11129 ft 317 kts 255°
2026-05-06 11:27 32.92194 130.93955 10763 ft 308 kts 255°
2026-05-06 11:27 32.91590 130.91563 10428 ft 299 kts 255°
2026-05-06 11:28 32.90997 130.89210 10106 ft 292 kts 255°
2026-05-06 11:28 32.90424 130.86943 9787 ft 286 kts 255°
2026-05-06 11:28 32.89856 130.84692 9472 ft 284 kts 255°
2026-05-06 11:28 32.89290 130.82457 9160 ft 282 kts 254°
2026-05-06 11:29 32.88723 130.80219 8843 ft 281 kts 254°
2026-05-06 11:29 32.88159 130.77991 8530 ft 280 kts 254°
2026-05-06 11:29 32.87597 130.75774 8223 ft 280 kts 253°
2026-05-06 11:29 32.87038 130.73573 7908 ft 275 kts 253°
2026-05-06 11:30 32.86491 130.71419 7598 ft 267 kts 253°
2026-05-06 11:30 32.85962 130.69339 7314 ft 258 kts 253°
2026-05-06 11:30 32.85455 130.67346 7058 ft 249 kts 252°
2026-05-06 11:30 32.84958 130.65393 6790 ft 242 kts 253°
2026-05-06 11:31 32.84481 130.63524 6528 ft 236 kts 252°
2026-05-06 11:31 32.84008 130.61676 6271 ft 230 kts 250°
2026-05-06 11:31 32.83097 130.60205 6048 ft 224 kts 210°
2026-05-06 11:31 32.81593 130.59688 5798 ft 224 kts 187°
2026-05-06 11:32 32.80068 130.59486 5536 ft 218 kts 186°
2026-05-06 11:32 32.78579 130.59315 5242 ft 214 kts 185°
2026-05-06 11:32 32.77132 130.59488 4972 ft 207 kts 151°
2026-05-06 11:32 32.76221 130.60706 4734 ft 203 kts 108°
2026-05-06 11:33 32.75986 130.62312 4435 ft 190 kts 97°
2026-05-06 11:33 32.75839 130.63847 4195 ft 188 kts 96°
2026-05-06 11:33 32.75750 130.65396 3980 ft 190 kts 81°
2026-05-06 11:33 32.76192 130.66867 3747 ft 189 kts 65°
2026-05-06 11:34 32.76758 130.68275 3483 ft 190 kts 65°
2026-05-06 11:34 32.77331 130.69693 3219 ft 189 kts 65°
2026-05-06 11:34 32.77897 130.71089 2967 ft 187 kts 66°
2026-05-06 11:34 32.78439 130.72426 2718 ft 171 kts 65°
2026-05-06 11:35 32.78938 130.73656 2476 ft 163 kts 65°
2026-05-06 11:35 32.79407 130.74812 2290 ft 147 kts 65°
2026-05-06 11:35 32.79830 130.75858 2086 ft 136 kts 65°
2026-05-06 11:35 32.80235 130.76859 1906 ft 135 kts 65°
2026-05-06 11:36 32.80643 130.77869 1731 ft 136 kts 65°
2026-05-06 11:36 32.81060 130.78882 1561 ft 137 kts 64°
2026-05-06 11:36 32.81492 130.79889 1389 ft 139 kts 65°
2026-05-06 11:36 32.81905 130.80928 1185 ft 137 kts 66°
2026-05-06 11:37 32.82309 130.81941 999 ft 137 kts 65°
2026-05-06 11:37 32.82717 130.82960 839 ft 137 kts 65°
2026-05-06 11:37 32.83128 130.83997 657 ft 137 kts 65°
2026-05-06 11:37 32.83518 130.84972 634 ft 113 kts 66°
2026-05-06 11:38 32.83774 130.85612 643 ft 59 kts 66°
2026-05-06 11:38 32.83897 130.85977 648 ft 20 kts 119°
2026-05-06 11:38 32.83813 130.86040 647 ft 12 kts 161°
2026-05-06 11:38 32.83745 130.85997 646 ft 13 kts 244°
2026-05-06 11:39 32.83700 130.85889 644 ft 15 kts 245°
2026-05-06 11:39 32.83648 130.85780 643 ft 14 kts 203°
2026-05-06 11:39 32.83584 130.85806 644 ft 6 kts 152°
2026-05-06 11:39 32.83546 130.85829 644 ft 6 kts 153°
2026-05-06 11:40 32.83523 130.85841 644 ft 0 kts 155°
2026-05-06 11:40 32.83520 130.85844 644 ft 0 kts 155°